OneWeb SL0369

operational
NORAD ID: 49295 Int'l Des: 2021-090 Owner: ONEWEBN Country: UK Constellation: oneweb
LEOCIRCULARPOLARONEWEB_TYPE

About OneWeb SL0369

Description loading...

Live Position

Loading 3D Globe...

Upcoming Passes

Altitude History

Altitude vs Time

uPlot chart will show altitude changes over time

Two-Line Element Set

1 49295U 21090S 26049.22541251 .00000019 00000-0 15540-4 0 9993
2 49295 87.9250 328.6651 0001669 79.5591 280.5729 13.19724064210723
Epoch: Feb 18, 2026 • Age: 14 hours

Current Status

Altitude 1188.8 km
Velocity 7.26 km/s
Sub-Earth Point 27.25°N, 74.96°E
Launch Date Oct 14, 2021
Age 4.3 years
Type internet

Technical Details

Classification Payload
Mass 148.00 kg
Dry Mass 140.00 kg
Total Mass 148.00 kg
Length 1.30 m
Diameter 1.00 m
Span 5.00 m
Shape Trapezoid+2 pan
Manufacturer ONEWUS
Bus Type ARROW
Phase Status In Orbit
Owner/State ONEWEBN/UK

Large Constellations

Loading constellations...